TimePST,TemperatureF,Dew PointF,Humidity,Sea Level PressureIn,VisibilityMPH,Wind Direction,Wind SpeedMPH,Gust SpeedMPH,PrecipitationIn,Events,Conditions,WindDirDegrees,DateUTC
12:02 AM,28.4,24.8,86,30.33,1.8,Calm,Calm,-,N/A,,Mostly Cloudy,0,2012-11-26 08:02:00
12:15 AM,26.6,23.0,86,30.33,3.0,ENE,3.5,-,N/A,,Mostly Cloudy,70,2012-11-26 08:15:00
12:25 AM,26.6,24.8,93,30.33,6.0,Calm,Calm,-,N/A,,Scattered Clouds,0,2012-11-26 08:25:00
12:37 AM,28.4,24.8,86,30.33,6.0,Calm,Calm,-,N/A,,Mostly Cloudy,0,2012-11-26 08:37:00
12:48 AM,28.4,24.8,86,30.33,3.0,Calm,Calm,-,N/A,,Overcast,0,2012-11-26 08:48:00
12:53 AM,28.0,25.0,88,30.38,1.0,Calm,Calm,-,N/A,,Overcast,0,2012-11-26 08:53:00
12:56 AM,28.4,24.8,86,30.33,0.5,Calm,Calm,-,N/A,Fog,Light Freezing Fog,0,2012-11-26 08:56:00
1:06 AM,28.4,24.8,86,30.33,1.0,Calm,Calm,-,N/A,,Overcast,0,2012-11-26 09:06:00
1:14 AM,28.4,24.8,86,30.33,3.0,Calm,Calm,-,N/A,,Overcast,0,2012-11-26 09:14:00
1:18 AM,28.4,24.8,86,30.33,1.5,Calm,Calm,-,N/A,,Overcast,0,2012-11-26 09:18:00
1:23 AM,26.6,24.8,93,30.33,0.5,Calm,Calm,-,N/A,Fog,Light Freezing Fog,0,2012-11-26 09:23:00
1:30 AM,26.6,24.8,93,30.33,0.8,Calm,Calm,-,N/A,,Overcast,0,2012-11-26 09:30:00
1:35 AM,26.6,24.8,93,30.34,2.0,SE,3.5,-,N/A,,Overcast,140,2012-11-26 09:35:00
1:53 AM,27.0,24.1,89,30.39,1.2,Calm,Calm,-,N/A,,Overcast,0,2012-11-26 09:53:00
2:04 AM,26.6,24.8,93,30.33,0.5,Calm,Calm,-,N/A,Fog,Light Freezing Fog,0,2012-11-26 10:04:00
2:53 AM,27.0,25.0,92,30.38,0.2,Calm,Calm,-,N/A,Fog,Light Freezing Fog,0,2012-11-26 10:53:00
3:53 AM,28.0,25.0,88,30.36,0.2,Calm,Calm,-,N/A,Fog,Light Freezing Fog,0,2012-11-26 11:53:00
4:34 AM,28.4,24.8,86,30.30,1.0,Calm,Calm,-,N/A,,Mist,0,2012-11-26 12:34:00
4:50 AM,28.4,26.6,93,30.30,3.0,Calm,Calm,-,N/A,,Overcast,0,2012-11-26 12:50:00
4:51 AM,28.9,26.1,89,30.36,3.0,Calm,Calm,-,N/A,,Overcast,0,2012-11-26 12:51:00
5:53 AM,28.9,26.1,89,30.36,3.0,Calm,Calm,-,N/A,,Overcast,0,2012-11-26 13:53:00
6:53 AM,28.9,26.1,89,30.35,3.0,Calm,Calm,-,N/A,,Overcast,0,2012-11-26 14:53:00
7:23 AM,28.4,26.6,93,30.29,2.0,North,3.5,-,N/A,,Overcast,360,2012-11-26 15:23:00
7:53 AM,28.9,26.1,89,30.35,5.0,Calm,Calm,-,N/A,,Overcast,0,2012-11-26 15:53:00
8:53 AM,30.0,26.1,85,30.35,10.0,Calm,Calm,-,N/A,,Overcast,0,2012-11-26 16:53:00
9:25 AM,30.2,26.6,86,30.29,10.0,Calm,Calm,-,N/A,,Scattered Clouds,0,2012-11-26 17:25:00
9:53 AM,30.9,27.0,85,30.34,10.0,Calm,Calm,-,N/A,,Scattered Clouds,0,2012-11-26 17:53:00
10:53 AM,32.0,27.0,82,30.30,10.0,Calm,Calm,-,N/A,,Scattered Clouds,0,2012-11-26 18:53:00
11:53 AM,35.1,28.9,78,30.28,10.0,WSW,3.5,-,N/A,,Partly Cloudy,240,2012-11-26 19:53:00
12:53 PM,37.9,30.0,73,30.26,10.0,Calm,Calm,-,N/A,,Clear,0,2012-11-26 20:53:00
1:53 PM,39.0,28.0,65,30.26,10.0,North,4.6,-,N/A,,Clear,360,2012-11-26 21:53:00
2:53 PM,37.9,28.0,68,30.24,10.0,North,3.5,-,N/A,,Clear,350,2012-11-26 22:53:00
3:53 PM,36.0,28.0,73,30.23,10.0,NNE,3.5,-,N/A,,Clear,30,2012-11-26 23:53:00
4:53 PM,33.1,28.0,82,30.24,10.0,Calm,Calm,-,N/A,,Clear,0,2012-11-27 00:53:00
5:53 PM,32.0,27.0,82,30.24,10.0,Calm,Calm,-,N/A,,Clear,0,2012-11-27 01:53:00
6:53 PM,30.9,27.0,85,30.25,10.0,Calm,Calm,-,N/A,,Clear,0,2012-11-27 02:53:00
7:53 PM,28.9,26.1,89,30.26,8.0,Calm,Calm,-,N/A,,Clear,0,2012-11-27 03:53:00
8:25 PM,26.6,26.6,100,30.20,1.5,Calm,Calm,-,N/A,,Clear,0,2012-11-27 04:25:00
8:45 PM,30.2,26.6,86,30.20,3.0,Calm,Calm,-,N/A,,Partly Cloudy,0,2012-11-27 04:45:00
8:53 PM,28.9,26.1,89,30.26,5.0,Calm,Calm,-,N/A,,Scattered Clouds,0,2012-11-27 04:53:00
8:57 PM,28.4,26.6,93,30.20,1.8,Calm,Calm,-,N/A,,Mostly Cloudy,0,2012-11-27 04:57:00
9:08 PM,30.2,26.6,86,30.21,3.0,Calm,Calm,-,N/A,,Mostly Cloudy,0,2012-11-27 05:08:00
9:40 PM,30.2,28.4,93,30.22,6.0,Calm,Calm,-,N/A,,Overcast,0,2012-11-27 05:40:00
9:53 PM,30.9,28.0,89,30.27,6.0,Calm,Calm,-,N/A,,Overcast,0,2012-11-27 05:53:00
10:53 PM,30.9,28.0,89,30.26,10.0,East,3.5,-,N/A,,Overcast,90,2012-11-27 06:53:00
11:53 PM,32.0,27.0,82,30.25,10.0,Calm,Calm,-,N/A,,Overcast,0,2012-11-27 07:53:00